When you browse on this site, cookies collect data to enhance your experience and personalize the content and advertising you see.
Visit our Privacy Policy to learn more. By continuing to use the site, you agree to this use of cookies and data.
  • In Österreich
  • Länderverzeichnis
  • Für 7 Tage
  • Wassertemperatur
  • Wetterkarte
  • News
  • Widgets
  • user-avatar
    Anmelden

    Stündliche Wetter Wien

    Heute, 30 März, Montag

    Zeit Temperatur Niederschläge Wind Luftdruck Luftfeuchtigkeit
    00:00 +2°C° 0.1 mm 5 m/S 745 mmHg 77%
    01:00 +1°C° 0 mm 6 m/S 746 mmHg 81%
    02:00 +1°C° 0.1 mm 6 m/S 746 mmHg 75%
    03:00 -1°C° 0.1 mm 6 m/S 746 mmHg 70%
    04:00 -2°C° 0.1 mm 6 m/S 746 mmHg 65%
    05:00 -2°C° 0 mm 6 m/S 747 mmHg 62%
    06:00 -3°C° 0 mm 6 m/S 747 mmHg 60%
    07:00 -3°C° 0 mm 6 m/S 747 mmHg 57%
    08:00 -2°C° 0 mm 6 m/S 747 mmHg 52%
    09:00 -1°C° 0 mm 6 m/S 747 mmHg 47%
    10:00 -1°C° 0 mm 6 m/S 748 mmHg 42%
    11:00 +1°C° 0 mm 5 m/S 747 mmHg 40%
    12:00 +2°C° 0 mm 5 m/S 747 mmHg 37%
    13:00 +3°C° 0 mm 5 m/S 747 mmHg 34%
    14:00 +3°C° 0 mm 5 m/S 747 mmHg 32%
    15:00 +4°C° 0 mm 4 m/S 747 mmHg 30%
    16:00 +5°C° 0 mm 4 m/S 747 mmHg 29%
    17:00 +3°C° 0 mm 4 m/S 747 mmHg 33%
    18:00 +2°C° 0 mm 3 m/S 747 mmHg 37%
    19:00 +2°C° 0 mm 2 m/S 748 mmHg 40%
    20:00 +1°C° 0 mm 2 m/S 748 mmHg 43%
    21:00 +2°C° 0 mm 1 m/S 748 mmHg 45%
    22:00 +1°C° 0 mm 1 m/S 749 mmHg 47%
    23:00 +1°C° 0 mm 1 m/S 749 mmHg 48%

    Morgen, 31 März, Dienstag

    Zeit Temperatur Niederschläge Wind Luftdruck Luftfeuchtigkeit
    00:00 +1°C° 0 mm 1 m/S 749 mmHg 49%
    01:00 +1°C° 0 mm 1 m/S 749 mmHg 49%
    02:00 0°C° 0 mm 1 m/S 749 mmHg 50%
    03:00 0°C° 0 mm 1 m/S 748 mmHg 51%
    04:00 0°C° 0 mm 1 m/S 748 mmHg 52%
    05:00 +1°C° 0 mm 1 m/S 748 mmHg 50%
    06:00 +1°C° 0 mm 1 m/S 748 mmHg 48%
    07:00 +2°C° 0 mm 1 m/S 748 mmHg 46%
    08:00 +3°C° 0 mm 1 m/S 749 mmHg 48%
    09:00 +3°C° 0 mm 2 m/S 749 mmHg 49%
    10:00 +3°C° 0 mm 3 m/S 749 mmHg 50%
    11:00 +4°C° 0.2 mm 3 m/S 749 mmHg 49%
    12:00 +4°C° 0.2 mm 3 m/S 749 mmHg 48%
    13:00 +5°C° 0.2 mm 3 m/S 748 mmHg 46%
    14:00 +5°C° 0.2 mm 3 m/S 748 mmHg 46%
    15:00 +5°C° 0.2 mm 4 m/S 748 mmHg 45%
    16:00 +5°C° 0.2 mm 4 m/S 748 mmHg 45%
    17:00 +4°C° 0.1 mm 4 m/S 749 mmHg 52%
    18:00 +3°C° 0.1 mm 4 m/S 749 mmHg 59%
    19:00 +2°C° 0.1 mm 3 m/S 749 mmHg 66%
    20:00 +1°C° 0 mm 3 m/S 750 mmHg 70%
    21:00 0°C° 0 mm 3 m/S 750 mmHg 74%
    22:00 -1°C° 0 mm 3 m/S 751 mmHg 78%
    23:00 -1°C° 0 mm 3 m/S 750 mmHg 78%

    übermorgen, 1 April, Mittwoch

    Zeit Temperatur Niederschläge Wind Luftdruck Luftfeuchtigkeit
    00:00 -1°C° 0 mm 3 m/S 750 mmHg 78%
    01:00 -2°C° 0 mm 2 m/S 750 mmHg 77%
    02:00 -2°C° 0 mm 2 m/S 750 mmHg 77%
    03:00 -2°C° 0 mm 2 m/S 750 mmHg 76%
    04:00 -3°C° 0 mm 2 m/S 749 mmHg 76%
    05:00 -2°C° 0 mm 2 m/S 749 mmHg 72%
    06:00 -1°C° 0 mm 2 m/S 749 mmHg 68%
    07:00 +1°C° 0 mm 1 m/S 749 mmHg 65%
    08:00 +3°C° 0 mm 1 m/S 749 mmHg 58%
    09:00 +5°C° 0 mm 1 m/S 748 mmHg 50%
    10:00 +6°C° 0 mm 1 m/S 748 mmHg 43%
    11:00 +7°C° 0 mm 1 m/S 747 mmHg 40%
    12:00 +8°C° 0 mm 1 m/S 747 mmHg 37%
    13:00 +9°C° 0 mm 1 m/S 747 mmHg 34%
    14:00 +9°C° 0 mm 1 m/S 746 mmHg 34%
    15:00 +9°C° 0 mm 1 m/S 745 mmHg 34%
    16:00 +10°C° 0 mm 1 m/S 744 mmHg 35%
    17:00 +8°C° 0 mm 1 m/S 745 mmHg 40%
    18:00 +7°C° 0 mm 1 m/S 745 mmHg 44%
    19:00 +4°C° 0 mm 2 m/S 745 mmHg 49%
    20:00 +4°C° 0 mm 2 m/S 745 mmHg 52%
    21:00 +3°C° 0 mm 2 m/S 745 mmHg 54%
    22:00 +3°C° 0 mm 2 m/S 745 mmHg 56%
    23:00 +2°C° 0 mm 2 m/S 745 mmHg 59%

    2 April, Donnerstag

    Zeit Temperatur Niederschläge Wind Luftdruck Luftfeuchtigkeit
    00:00 +3°C° 0 mm 1 m/S 744 mmHg 61%
    01:00 +2°C° 0 mm 1 m/S 744 mmHg 63%
    02:00 +2°C° 0 mm 1 m/S 744 mmHg 64%
    03:00 +2°C° 0 mm 1 m/S 743 mmHg 66%
    04:00 +1°C° 0 mm 1 m/S 743 mmHg 67%
    05:00 +2°C° 0 mm 1 m/S 743 mmHg 64%
    06:00 +3°C° 0 mm 1 m/S 743 mmHg 61%
    07:00 +3°C° 0 mm 0 m/S 743 mmHg 59%
    08:00 +6°C° 0 mm 1 m/S 743 mmHg 52%
    09:00 +8°C° 0 mm 1 m/S 743 mmHg 46%
    10:00 +10°C° 0 mm 1 m/S 742 mmHg 39%
    11:00 +11°C° 0 mm 1 m/S 742 mmHg 37%
    12:00 +12°C° 0 mm 1 m/S 742 mmHg 34%
    13:00 +13°C° 0 mm 2 m/S 741 mmHg 31%
    14:00 +13°C° 0 mm 2 m/S 741 mmHg 32%
    15:00 +13°C° 0 mm 2 m/S 740 mmHg 33%
    16:00 +13°C° 0 mm 2 m/S 739 mmHg 34%
    17:00 +12°C° 0 mm 2 m/S 740 mmHg 40%
    18:00 +9°C° 0 mm 2 m/S 740 mmHg 46%
    19:00 +7°C° 0 mm 2 m/S 740 mmHg 51%
    20:00 +7°C° 0 mm 2 m/S 740 mmHg 53%
    21:00 +6°C° 0 mm 2 m/S 740 mmHg 56%
    22:00 +5°C° 0 mm 2 m/S 740 mmHg 58%
    23:00 +5°C° 0 mm 2 m/S 740 mmHg 59%

    3 April, Freitag

    Zeit Temperatur Niederschläge Wind Luftdruck Luftfeuchtigkeit
    00:00 +6°C° 0 mm 1 m/S 740 mmHg 61%
    01:00 +5°C° 0 mm 1 m/S 739 mmHg 62%
    02:00 +5°C° 0 mm 1 m/S 739 mmHg 64%
    03:00 +5°C° 0 mm 1 m/S 739 mmHg 65%
    04:00 +4°C° 0 mm 1 m/S 739 mmHg 67%
    05:00 +4°C° 0 mm 2 m/S 740 mmHg 65%
    06:00 +4°C° 0 mm 3 m/S 740 mmHg 64%
    07:00 +5°C° 0 mm 4 m/S 741 mmHg 63%
    08:00 +6°C° 0 mm 5 m/S 741 mmHg 58%
    09:00 +8°C° 0 mm 6 m/S 741 mmHg 53%
    10:00 +9°C° 0 mm 7 m/S 741 mmHg 49%
    11:00 +10°C° 0 mm 7 m/S 741 mmHg 48%
    12:00 +10°C° 0 mm 7 m/S 741 mmHg 47%
    13:00 +11°C° 0 mm 7 m/S 742 mmHg 46%
    14:00 +10°C° 0 mm 6 m/S 742 mmHg 49%
    15:00 +10°C° 0 mm 6 m/S 742 mmHg 52%
    16:00 +9°C° 0 mm 6 m/S 742 mmHg 56%
    17:00 +8°C° 0 mm 5 m/S 743 mmHg 58%
    18:00 +7°C° 0 mm 5 m/S 744 mmHg 61%
    19:00 +6°C° 0 mm 4 m/S 744 mmHg 64%
    20:00 +6°C° 0 mm 4 m/S 745 mmHg 64%
    21:00 +5°C° 0 mm 4 m/S 746 mmHg 64%
    22:00 +5°C° 0 mm 3 m/S 747 mmHg 65%
    23:00 +4°C° 0 mm 3 m/S 748 mmHg 64%

    4 April, Samstag

    Zeit Temperatur Niederschläge Wind Luftdruck Luftfeuchtigkeit
    00:00 +3°C° 0 mm 3 m/S 748 mmHg 64%
    01:00 +3°C° 0 mm 3 m/S 749 mmHg 64%
    02:00 +2°C° 0 mm 3 m/S 749 mmHg 66%
    03:00 +3°C° 0 mm 2 m/S 750 mmHg 68%
    04:00 +2°C° 0 mm 2 m/S 750 mmHg 70%
    05:00 +2°C° 0 mm 2 m/S 751 mmHg 69%
    06:00 +3°C° 0 mm 2 m/S 751 mmHg 67%
    07:00 +3°C° 0 mm 2 m/S 752 mmHg 65%
    08:00 +5°C° 0 mm 2 m/S 752 mmHg 58%
    09:00 +8°C° 0 mm 1 m/S 752 mmHg 50%
    10:00 +9°C° 0 mm 1 m/S 752 mmHg 43%
    11:00 +10°C° 0 mm 1 m/S 752 mmHg 39%
    12:00 +11°C° 0 mm 1 m/S 752 mmHg 36%
    13:00 +12°C° 0 mm 1 m/S 752 mmHg 33%
    14:00 +12°C° 0 mm 1 m/S 752 mmHg 33%
    15:00 +12°C° 0 mm 1 m/S 752 mmHg 32%
    16:00 +12°C° 0 mm 1 m/S 751 mmHg 32%
    17:00 +9°C° 0 mm 2 m/S 752 mmHg 36%
    18:00 +8°C° 0 mm 2 m/S 752 mmHg 41%
    19:00 +7°C° 0 mm 2 m/S 752 mmHg 45%
    20:00 +6°C° 0 mm 2 m/S 753 mmHg 47%
    21:00 +6°C° 0 mm 2 m/S 753 mmHg 48%
    22:00 +5°C° 0 mm 2 m/S 754 mmHg 50%
    23:00 +5°C° 0 mm 2 m/S 754 mmHg 52%
    Mehr zeigen